[[{"header":{"parameterUnit":"m.s-1","parameterCategory":1,"la1":30.2991,"la2":30.254,"lo1":-89.0895,"lo2":-89.0444,"dy":0.0017,"dx":0.0017,"nx":28,"ny":28,"refTime":"2024-11-26T03:00:00:Z","depth":0,"parameterNumber":2,"parameterNumberName":"U-component_of_WINDS"},"data":[0,0,0,0,0,0,0,0,0,0,0,0,0,0,0,0,0,0,0,0,0,0,0,0,0,0,0,0,0,0,0,0,0,0,0,0,0,0,0,0,0,0,0,0,0,0,0,0,0,0,0,0,0,0,0,0,0,0,0.9191,0.9191,0,0.9245,0.9245,0.9246,0.9263,0.9263,0.9263,0.9262,0.9319,0.932,0.9322,0,0,0,0,0,0,0,0,0,0,0,0,0,0.9104,0.9106,0.9191,0.9191,0.9192,0.9244,0.9245,0.9246,0.9263,0.9263,0.9262,0.9262,0.9318,0.932,0.9322,0,0,0,0,0,0,0,0,0,0,0,0,0,0.9148,0.9106,0.919,0.9207,0.9209,0.9244,0.9245,0.9246,0.9263,0.9263,0.9262,0.9262,0.9317,0.932,0.9323,0.9346,0,0,0.933,0.9332,0,0,0,0,0,0,0,0,0.9146,0.9151,0.9204,0.9206,0.9208,0.9247,0.9235,0.928,0.9263,0.9243,0.9262,0.9262,0.9295,0.9299,0.931,0.9349,0.9351,0.9331,0.9332,0.9333,0.9334,0,0,0,0,0,0,0,0.9143,0.9149,0.9212,0.9204,0.9207,0.9212,0.9218,0.9244,0.927,0.9244,0.9246,0.9252,0.9296,0.9308,0.9312,0.9352,0.9331,0.9333,0.9335,0.9336,0.9413,0.9413,0,0,0,0,0,0,0.9137,0.9147,0.921,0.9214,0.9175,0.9214,0.922,0.9235,0.927,0.9275,0.9252,0.9252,0.9304,0.9309,0.9314,0.9344,0.9333,0.9336,0.9337,0.9412,0.9413,0.9413,0,0,0,0,0,0,0.9135,0.9142,0.9208,0.918,0.9189,0.9216,0.9232,0.9236,0.9248,0.9276,0.9281,0.9259,0.9304,0.931,0.9338,0.9346,0.9337,0.9339,0.9412,0.9413,0.9413,0.9404,0,0,0,0,0,0,0.9132,0.9141,0.915,0.9181,0.9191,0.9231,0.9232,0.9237,0.9252,0.9253,0.9284,0.9288,0.9304,0.9334,0.9341,0.935,0.9341,0.9411,0.9412,0.9413,0.9404,0.9404,0.9405,0,0,0,0,0,0.9129,0.9145,0.915,0.9158,0.9202,0.9231,0.9237,0.9254,0.9252,0.9262,0.928,0.9288,0.9344,0.9337,0.9344,0.9354,0.9411,0.9412,0.9413,0.9403,0.9404,0.9405,0,0,0,0,0,0,0.9115,0.915,0.9156,0.9182,0.9204,0.9234,0.9246,0.9254,0.9276,0.9276,0.9297,0.9304,0.933,0.9345,0.9336,0.9379,0.9378,0.9381,0.9368,0.9369,0.937,0.9365,0.9343,0,0,0,0,0,0.9116,0.9136,0.9165,0.9186,0.9196,0.9219,0.9232,0.9244,0.9267,0.9276,0.9296,0.9319,0.9342,0.9356,0.9379,0.9406,0.9414,0.9417,0.9418,0.9418,0.942,0.9436,0.9438,0.9417,0.9417,0.9417,0,0,0.9116,0.9137,0.9149,0.9183,0.9201,0.9222,0.9227,0.9248,0.9264,0.9279,0.9307,0.9322,0.9349,0.9377,0.939,0.939,0.9427,0.9419,0.9419,0.9421,0.9437,0.9439,0.9441,0.9418,0.9418,0.9418,0,0,0.9127,0.9145,0.9165,0.9182,0.9209,0.9225,0.923,0.9259,0.927,0.9298,0.9309,0.9329,0.9368,0.9387,0.9401,0.9421,0.9428,0.9428,0.9431,0.9446,0.9448,0.9449,0.9456,0.9458,0.943,0.943,0.943,0,0.9124,0.9156,0.9174,0.9195,0.921,0.9225,0.9245,0.9262,0.9295,0.9305,0.9305,0.9355,0.9374,0.9406,0.9411,0.9422,0.9428,0.9424,0.9446,0.9448,0.9449,0.9456,0.9459,0.9429,0.9429,0.9429,0.9429,0,0.9151,0.9173,0.9186,0.9217,0.9234,0.9254,0.9276,0.9291,0.9301,0.9317,0.9345,0.9368,0.9396,0.9405,0.9415,0.9439,0.9438,0.9442,0.9441,0.9451,0.9457,0.946,0.9429,0.9429,0.9429,0.9429,0,0,0.9154,0.9196,0.92,0.9215,0.9246,0.9263,0.9285,0.9312,0.9325,0.9348,0.9367,0.94,0.9403,0.942,0.9433,0.9446,0.946,0.9448,0.9449,0.9449,0.9488,0.9485,0.9488,0.9466,0.9467,0.9467,0.9486,0,0.917,0.9208,0.9225,0.9257,0.9277,0.9292,0.9311,0.9333,0.9348,0.9369,0.9386,0.9409,0.9412,0.9422,0.9436,0.9455,0.9468,0.9454,0.9484,0.9485,0.9476,0.9492,0.9488,0.9505,0.9489,0.9489,0.949,0,0.9192,0.9215,0.9248,0.9277,0.9286,0.9303,0.933,0.9349,0.9374,0.9385,0.9403,0.9416,0.944,0.9438,0.9472,0.9462,0.9475,0.9486,0.9488,0.9491,0.9487,0.9495,0.9511,0.9513,0.9494,0.9494,0.9493,0,0.9191,0.923,0.9255,0.9267,0.9302,0.9313,0.9328,0.9353,0.9369,0.9392,0.9402,0.9429,0.9443,0.9463,0.9482,0.9479,0.9515,0.9514,0.9524,0.9524,0.9531,0.953,0.9549,0.954,0.954,0.954,0.954,0,0.9206,0.9226,0.9255,0.927,0.9293,0.9313,0.9335,0.9352,0.9374,0.9393,0.9408,0.9426,0.945,0.9471,0.9487,0.9513,0.9519,0.9528,0.9532,0.9527,0.9526,0.9536,0.9535,0.954,0.954,0.954,0.954,0,0.9208,0.9229,0.9257,0.9288,0.9296,0.9311,0.9338,0.9354,0.9371,0.9395,0.9402,0.9428,0.9454,0.9475,0.9509,0.9519,0.9546,0.9551,0.9538,0.9539,0.9548,0.9547,0.9574,0.9579,0.9567,0.9567,0.9567,0,0.9216,0.9232,0.9264,0.9278,0.9293,0.9315,0.9331,0.9351,0.9367,0.9398,0.941,0.9437,0.9459,0.95,0.9523,0.9549,0.9554,0.9562,0.9558,0.9552,0.9554,0.9553,0.9555,0.9562,0.9562,0.9562,0.9562,0,0.9228,0.9237,0.9259,0.9285,0.9303,0.9325,0.9347,0.9357,0.9382,0.94,0.9426,0.9443,0.9478,0.9505,0.9534,0.955,0.956,0.9563,0.9567,0.9561,0.9553,0.9557,0.9538,0.9562,0.9562,0.9562,0.9562,0.9562,0.9233,0.9248,0.9273,0.9297,0.9316,0.9336,0.9352,0.9371,0.9394,0.9423,0.9434,0.9462,0.9487,0.9527,0.9544,0.9566,0.9567,0.9572,0.9574,0.9575,0.9574,0.955,0.9571,0.9571,0.9571,0.9571,0.9571,0,0.9246,0.9263,0.9285,0.9315,0.9334,0.9342,0.9367,0.9382,0.9406,0.9429,0.9451,0.9482,0.9508,0.9533,0.956,0.9573,0.9579,0.958,0.9579,0.9582,0.9571,0.9565,0.9575,0.9575,0.9575,0.9575,0.9575,0.9575,0.9254,0.928,0.9292,0.9327,0.9344,0.9371,0.9384,0.9403,0.9422,0.9455,0.9477,0.9493,0.9517,0.9546,0.9571,0.9578,0.9587,0.9587,0.9595,0.9584,0.9583,0.9583,0.9577,0.9589,0.9589,0.9604,0.9605,0.9605]},{"header":{"parameterUnit":"m.s-1","parameterCategory":1,"la1":30.2991,"la2":30.254,"lo1":-89.0895,"lo2":-89.0444,"dy":0.0017,"dx":0.0017,"nx":28,"ny":28,"refTime":"2024-11-26T03:00:00:Z","depth":0,"parameterNumber":3,"parameterNumberName":"V-component_of_WINDS"},"data":[0,0,0,0,0,0,0,0,0,0,0,0,0,0,0,0,0,0,0,0,0,0,0,0,0,0,0,0,0,0,0,0,0,0,0,0,0,0,0,0,0,0,0,0,0,0,0,0,0,0,0,0,0,0,0,0,0,0,-3.9135,-3.9136,0,-3.9217,-3.9218,-3.9219,-3.9201,-3.9199,-3.9198,-3.9196,-3.9275,-3.9278,-3.9282,0,0,0,0,0,0,0,0,0,0,0,0,0,-3.8959,-3.8962,-3.9135,-3.9136,-3.9137,-3.9217,-3.9218,-3.9219,-3.9201,-3.9199,-3.9197,-3.9195,-3.9273,-3.9278,-3.9282,0,0,0,0,0,0,0,0,0,0,0,0,0,-3.9037,-3.8963,-3.9135,-3.9138,-3.9139,-3.9217,-3.9218,-3.922,-3.9201,-3.9199,-3.9197,-3.9195,-3.9272,-3.9277,-3.9282,-3.9361,0,0,-3.9299,-3.9301,0,0,0,0,0,0,0,0,-3.9033,-3.9044,-3.9136,-3.9138,-3.9139,-3.9197,-3.9185,-3.9267,-3.9202,-3.9177,-3.9196,-3.9193,-3.925,-3.9257,-3.9277,-3.9365,-3.9368,-3.9299,-3.9302,-3.9304,-3.9306,0,0,0,0,0,0,0,-3.9028,-3.904,-3.9167,-3.9138,-3.914,-3.9134,-3.9142,-3.92,-3.9225,-3.9179,-3.9178,-3.9189,-3.925,-3.9272,-3.9279,-3.9369,-3.9299,-3.9304,-3.9307,-3.9309,-3.9527,-3.9529,0,0,0,0,0,0,-3.9022,-3.9036,-3.9165,-3.917,-3.908,-3.9139,-3.9148,-3.918,-3.9225,-3.923,-3.919,-3.9187,-3.9264,-3.9273,-3.9282,-3.9378,-3.9304,-3.9309,-3.9312,-3.9524,-3.9527,-3.953,0,0,0,0,0,0,-3.9018,-3.9033,-3.9162,-3.9103,-3.9119,-3.9144,-3.918,-3.9183,-3.9205,-3.9233,-3.9237,-3.9209,-3.9263,-3.9274,-3.9342,-3.9381,-3.9312,-3.9317,-3.9521,-3.9525,-3.9529,-3.9571,0,0,0,0,0,0,-3.9013,-3.9032,-3.9063,-3.9104,-3.9122,-3.9222,-3.9183,-3.9186,-3.9215,-3.9212,-3.9251,-3.9255,-3.9262,-3.9334,-3.9347,-3.9387,-3.9321,-3.9518,-3.9523,-3.9527,-3.9566,-3.9576,-3.9584,0,0,0,0,0,-3.9007,-3.907,-3.9065,-3.908,-3.9161,-3.9224,-3.9235,-3.9242,-3.9218,-3.9249,-3.9267,-3.9254,-3.9374,-3.9342,-3.9356,-3.9397,-3.9515,-3.9521,-3.9527,-3.9562,-3.9574,-3.9584,0,0,0,0,0,0,-3.9031,-3.9075,-3.907,-3.9148,-3.9183,-3.9221,-3.926,-3.9254,-3.9295,-3.929,-3.9296,-3.9305,-3.9375,-3.9392,-3.9355,-3.9476,-3.9441,-3.945,-3.9463,-3.9474,-3.9483,-3.9477,-3.9325,0,0,0,0,0,-3.9046,-3.9095,-3.913,-3.9196,-3.9214,-3.9234,-3.9262,-3.9265,-3.93,-3.9314,-3.9338,-3.9371,-3.9416,-3.9446,-3.9489,-3.9568,-3.9577,-3.9604,-3.9613,-3.962,-3.9628,-3.9672,-3.9685,-3.9549,-3.9549,-3.9549,0,0,-3.9076,-3.9106,-3.9136,-3.9202,-3.9229,-3.9279,-3.9247,-3.93,-3.9337,-3.9322,-3.9389,-3.9407,-3.9444,-3.9519,-3.9553,-3.9536,-3.9667,-3.9627,-3.9633,-3.9637,-3.968,-3.9693,-3.9704,-3.9553,-3.9553,-3.9552,0,0,-3.9157,-3.9185,-3.9244,-3.9273,-3.9315,-3.9329,-3.9343,-3.9383,-3.9395,-3.9462,-3.9453,-3.9496,-3.9573,-3.9601,-3.9625,-3.9719,-3.9709,-3.9733,-3.978,-3.9823,-3.9834,-3.9843,-3.9878,-3.989,-3.9741,-3.9741,-3.9741,0,-3.9189,-3.9265,-3.9274,-3.933,-3.9359,-3.935,-3.941,-3.9437,-3.949,-3.951,-3.949,-3.959,-3.9614,-3.9696,-3.9719,-3.9738,-3.9755,-3.9729,-3.9832,-3.9841,-3.985,-3.9884,-3.9897,-3.9743,-3.9743,-3.9743,-3.9743,0,-3.9303,-3.9356,-3.9398,-3.9454,-3.9487,-3.9544,-3.9561,-3.9594,-3.9595,-3.961,-3.9679,-3.9709,-3.9758,-3.9778,-3.9777,-3.986,-3.9848,-3.983,-3.9795,-3.9866,-3.9898,-3.991,-3.9747,-3.9746,-3.9746,-3.9745,0,0,-3.9401,-3.9463,-3.9478,-3.9504,-3.9551,-3.9591,-3.9648,-3.9699,-3.9728,-3.9765,-3.9813,-3.988,-3.9864,-3.9892,-3.9894,-3.9933,-4.0007,-3.991,-3.9911,-3.9928,-4.0101,-4.0115,-4.013,-4.0,-4.0003,-4.0005,-4.0098,0,-3.9488,-3.959,-3.9601,-3.9692,-3.9742,-3.9735,-3.9784,-3.9818,-3.9834,-3.9877,-3.9894,-3.9942,-3.9917,-3.9934,-3.9971,-3.999,-4.0042,-3.9983,-4.0045,-4.0047,-4.0037,-4.0146,-4.0161,-4.0248,-4.0111,-4.0113,-4.0114,0,-3.9602,-3.9647,-3.9744,-3.9786,-3.9807,-3.9852,-3.99,-3.9942,-3.998,-3.9989,-4.0021,-4.002,-4.0077,-4.0039,-4.0119,-4.0079,-4.0104,-4.0118,-4.0121,-4.0128,-4.0085,-4.0157,-4.0276,-4.029,-4.0133,-4.0132,-4.013,0,-3.9666,-3.9749,-3.9819,-3.9841,-3.9891,-3.9923,-3.9945,-3.9981,-4.0012,-4.0054,-4.0074,-4.0121,-4.0146,-4.0182,-4.0193,-4.0165,-4.0273,-4.0236,-4.0282,-4.0282,-4.0306,-4.0304,-4.0432,-4.032,-4.032,-4.032,-4.0319,0,-3.9763,-3.9822,-3.9849,-3.9891,-3.9958,-3.9969,-4.0035,-4.0055,-4.0088,-4.0134,-4.0129,-4.0172,-4.0183,-4.0228,-4.0236,-4.0302,-4.0313,-4.0321,-4.0323,-4.0323,-4.0322,-4.034,-4.0335,-4.0323,-4.0322,-4.0322,-4.0321,0,-3.9845,-3.9865,-3.9941,-3.9984,-3.9996,-4.0043,-4.0079,-4.012,-4.0136,-4.0194,-4.0208,-4.0233,-4.0285,-4.03,-4.0361,-4.0367,-4.0445,-4.044,-4.0433,-4.0433,-4.0479,-4.0475,-4.0624,-4.0644,-4.0518,-4.0519,-4.052,0,-3.9906,-3.9953,-4.0002,-4.0033,-4.0058,-4.0108,-4.0141,-4.0153,-4.0186,-4.0235,-4.027,-4.0322,-4.0365,-4.0449,-4.0471,-4.0519,-4.0516,-4.0565,-4.0523,-4.0522,-4.0518,-4.0516,-4.0521,-4.0573,-4.0574,-4.0575,-4.0576,0,-4.0012,-4.0021,-4.0068,-4.0121,-4.016,-4.02,-4.0239,-4.0265,-4.0283,-4.032,-4.0376,-4.0409,-4.0474,-4.0526,-4.0575,-4.0596,-4.059,-4.0589,-4.0603,-4.0603,-4.0598,-4.0603,-4.0456,-4.0586,-4.0585,-4.0584,-4.0583,-4.0583,-4.0087,-4.0129,-4.0171,-4.0225,-4.0256,-4.0293,-4.0334,-4.0357,-4.0404,-4.0459,-4.0463,-4.0523,-4.0561,-4.0626,-4.065,-4.0696,-4.0681,-4.0701,-4.0706,-4.0711,-4.0715,-4.059,-4.0705,-4.0704,-4.0704,-4.0704,-4.0704,0,-4.0195,-4.0222,-4.0271,-4.0328,-4.037,-4.0362,-4.0405,-4.0441,-4.0495,-4.0531,-4.0574,-4.0638,-4.0689,-4.0716,-4.0767,-4.0799,-4.0797,-4.0812,-4.081,-4.0815,-4.0725,-4.0709,-4.0813,-4.0813,-4.0813,-4.0812,-4.0812,-4.0812,-4.0256,-4.0327,-4.034,-4.0427,-4.0453,-4.0514,-4.054,-4.0574,-4.0603,-4.0676,-4.0719,-4.0737,-4.077,-4.0824,-4.087,-4.0876,-4.0896,-4.0913,-4.0917,-4.0832,-4.0821,-4.0811,-4.0796,-4.0916,-4.0916,-4.1004,-4.1005,-4.1006]}]]